Location: Altenst�hlen
(53.5567°N, 8.9425°E)
Time: 21:49:29
(UTC+00:00)

Cosmos 2297 - Pass Details

Date: 23 October 2019
Orbit: 834 x 860 km, 71.0° (Epoch: 17 November)

Event Time Altitude Azimuth Distance (km) Brightness Sun altitude
Rises 18:16:48 0° 199° (SSW) 3,403 7.0 -19.3°
Reaches altitude 10° 18:19:15 10° 196° (SSW) 2,475 6.2 -19.7°
Maximum altitude 18:24:52 65° 116° (ESE) 942 3.6 -20.5°
Enters shadow 18:29:22 17° 38° (NE) 2,067 5.4 -21.2°
